Location: Deuil
(48.9767°N, 2.3272°E)
Time: 10:57:38
(UTC+00:00)

Cosmos 2228 - Pass Details

Date: 31 May 2022
Orbit: 586 x 617 km, 82.5° (Epoch: 01 July)

Event Time Altitude Azimuth Distance (km) Brightness Sun altitude
Rises 01:17:56 0° 354° (N) 2,888 7.6 -16.4°
Reaches altitude 10° 01:20:15 10° 360° (N) 1,974 6.7 -16.2°
Maximum altitude 01:24:29 49° 76° (ENE) 786 3.8 -16.0°
Enters shadow 01:28:14 13° 150° (SSE) 1,777 5.1 -15.7°
